Home > Time Zones > World Clock > Weather > Japan > Tokyo > Past weeks

Flag for Japan Weather past 2 weeks in Tokyo, Japan

Now
79 °F

Passing clouds.


Feels Like: 82 °F
Forecast: 80 / 94 °F
Wind: 2 mph from North

Location: Tokyo

Current Time: Aug 3, 2015 at 7:34:00 AM

Latest Report: Aug 3, 2015 at 6:00 AM


Visibility: 9 mi

Pressure: 29.91 "Hg

Humidity: 74%

Dew point: 70 °F

Location of TokyoLocation

Historic Weather in Tokyo — Graph

°F

Tokyo temperature yesterday

Maximum temperature yesterday: 93 °F (at 1:00 PM)
Minimum temperature yesterday: 80 °F (at 5:00 AM)
Average temperature yesterday: 86 °F

Past Weeks' High & Low Weather Summary

 TemperatureHumidityPressure
High95 °F (Jul 26, 2:00 PM)99% (Jul 25, 3:00 AM)29.96 "Hg (Jul 25, 3:00 AM)
Low77 °F (Jul 23, 6:00 AM)44% (Jul 21, 2:00 PM)29.67 "Hg (Jul 28, 3:00 PM)
Average85 °F73%29.82 "Hg
* Reported Jul 19 5:00 AM — Aug 3 5:00 AM, Tokyo, Weather by CustomWeather, © 2015

Note: Actual official high and low records may vary slightly from our data, if they occured in-between our weather recording intervals... More about our weather records

Advertising

Tokyo weather history for previous 24 hours

 ConditionsComfort  
Time TempWeatherWind HumidityBarometerVisibility
5:00 AM
Mon, Aug 3
81 °FWarm.5 mph68%29.90 "HgN/A
4:00 AM80 °FWarm.2 mph95%29.89 "HgN/A
3:00 AM81 °FFog.5 mph92%29.87 "Hg4 mi
2:00 AM81 °FWarm.7 mph90%29.88 "HgN/A
1:00 AM80 °FWarm.3 mph77%29.88 "HgN/A
12:00 AM82 °FWarm.2 mph69%29.89 "HgN/A
11:00 PM
Sun, Aug 2
84 °FWarm.3 mph60%29.90 "HgN/A
10:00 PM85 °FWarm.6 mph76%29.90 "HgN/A
9:00 PM83 °FOvercast.5 mph61%29.90 "Hg6 mi
8:00 PM86 °FWarm.3 mph73%29.92 "HgN/A
7:00 PM86 °FWarm.8 mph73%29.90 "HgN/A
6:00 PM87 °FPassing clouds.12 mph73%29.86 "Hg5 mi
5:00 PM89 °FHot.9 mph68%29.86 "HgN/A
4:00 PM92 °FHot.10 mph62%29.86 "HgN/A
3:00 PM93 °FHaze.10 mph59%29.85 "Hg5 mi
2:00 PM93 °FExtremely hot.12 mph58%29.86 "HgN/A
1:00 PM93 °FExtremely hot.10 mph57%29.87 "HgN/A
11:00 AM92 °FHot.6 mph57%29.89 "HgN/A
10:00 AM91 °FHot.3 mph59%29.91 "HgN/A
7:00 AM83 °FWarm.3 mph83%29.91 "HgN/A
Weather by CustomWeather, © 2015

See weather overviewHow to use our weather pages